Погода в Шавише

Португалия     41°44′15″N   7°28′33″W
темп.,
°C
ветер,
м/с
пор.,
м/с
влажн.,
%
обл.,
%
осадки,
мм/ч
давл.,
гПа
погр.,
м
12 апреля, пн
пн1201:00+7вюв397094 0.0 1024698
04:00+4юв2375100 0.0 1025116
07:00+2ю118158 0.0 102718
10:00+7вюв36555 0.0 1027800
13:00+12вюв464078 0.0 10251143
16:00+15юв4532100 0.0 10231321
19:00+13юв2245100 0.0 102350
22:00+9св1148100 0.0 102510
13 апреля, вт
вт1301:00+9с1147100 0.0 102510
04:00+7ю0050100 0.0 102410
07:00+8вюв1153100 0.0 102411
10:00+10юв1249100 0.0 1024374
13:00+10юв236199 0.4 1024450
16:00+12вюв2257100 0.0 1021621
19:00+12вюв116498 0.0 102139
22:00+10вюв0068100 0.0 102211
14 апреля, ср
ср1401:00+8св1175100 0.0 102110
04:00+7ссв1182100 0.0 102010
07:00+6ссв008744 0.0 101910
10:00+13вюв126140 0.0 1018421
13:00+17юв3453100 0.0 1015990
16:00+19ююв3349100 0.0 10121444
19:00+15зюз2371100 0.4 101276
22:00+11зсз1196100 3.4 101445
15 апреля, чт
чт1501:00+11св2399100 7.1 1014154
04:00+11ссз1198100 4.5 101254
07:00+11ююв1195100 9.1 101336
10:00+10ююв1196100 4.4 1014136
13:00+10вюв0193100 6.3 1014239
16:00+10ссз1294100 2.3 1013198
19:00+11зсз1196100 3.8 101457
22:00+10в0094100 0.1 101510
16 апреля, пт
пт1601:00+9сз119646 0.1 101610
04:00+8зсз119570 0.0 101610
07:00+9ссз009413 0.0 101611
10:00+14юв118066 0.0 1016545
13:00+16ю0165100 0.3 1015839
16:00+17сз465896 0.4 10141397
19:00+15сз4867100 0.4 1014598
22:00+10сз22795 0.0 101739